This is the latest recevied weather packets stored in our database for station/object KD5UMO-1. If no packets are shown the sender has not sent any weather packets the latest 10 day(s).
| Time | Temp. | Humidity | Pressure | Rain* | Wind** | Luminosity | Snow |
|---|---|---|---|---|---|---|---|
| 1778003936 | 28.33° C | 68% | 1005 hPa | 0 mm | - | 827 W/m² | - |
| 1778003632 | 27.78° C | 68% | 1005 hPa | 0 mm | - | 728 W/m² | - |
| 1778003329 | 28.33° C | 68% | 1005 hPa | 0 mm | - | 618 W/m² | - |
| 1778003027 | 28.33° C | 67% | 1005.1 hPa | 0 mm | - | 550 W/m² | - |
| 1778002722 | 27.78° C | 69% | 1005.3 hPa | 0 mm | - | 493 W/m² | - |
| 1778002414 | 27.78° C | 69% | 1005.1 hPa | 0 mm | - | 536 W/m² | - |
| 1778002111 | 27.22° C | 69% | 1005.3 hPa | 0 mm | - | 667 W/m² | - |
| 1778001809 | 27.22° C | 69% | 1005.4 hPa | 0 mm | - | 538 W/m² | - |
| 1778001507 | 27.22° C | 70% | 1005.2 hPa | 0 mm | - | 537 W/m² | - |
| 1778001205 | 27.22° C | 70% | 1005.3 hPa | 0 mm | - | 833 W/m² | - |
| 1778000901 | 26.67° C | 71% | 1005.3 hPa | 0 mm | - | 477 W/m² | - |
| 1778000598 | 26.67° C | 71% | 1005.4 hPa | 0 mm | - | 408 W/m² | - |
| 1778000293 | 27.22° C | 70% | 1005.5 hPa | 0 mm | - | 454 W/m² | - |
| 1777999989 | 26.67° C | 71% | 1005.3 hPa | 0 mm | - | 555 W/m² | - |
| 1777999685 | 26.67° C | 71% | 1005.3 hPa | 0 mm | - | 793 W/m² | - |
| 1777999382 | 26.11° C | 72% | 1005.2 hPa | 0 mm | - | 947 W/m² | - |
| 1777999080 | 26.11° C | 72% | 1005.2 hPa | 0 mm | - | 425 W/m² | - |
| 1777998779 | 26.67° C | 71% | 1005.1 hPa | 0 mm | - | 437 W/m² | - |
| 1777998476 | 26.11° C | 72% | 1005 hPa | 0 mm | - | 546 W/m² | - |
| 1777998172 | 26.11° C | 72% | 1005.2 hPa | 0 mm | - | 442 W/m² | - |
| 1777997870 | 26.11° C | 73% | 1005.2 hPa | 0 mm | - | 418 W/m² | - |
| 1777997567 | 25.56° C | 73% | 1005.3 hPa | 0 mm | - | 508 W/m² | - |
| 1777997264 | 25.56° C | 73% | 1005.2 hPa | 0 mm | - | 477 W/m² | - |
| 1777996962 | 25.56° C | 73% | 1005.2 hPa | 0 mm | - | 530 W/m² | - |
| 1777996658 | 26.11° C | 72% | 1004.7 hPa | 0 mm | - | 477 W/m² | - |
* Rain latest hour (hover to see other rain measurements)
** Current wind speed in m/s (hover to see current wind gust speed)